Regional Weather Roundup
Issued by NWS Goodland, KS

Home | Current Version | Previous Version | Text Only | Print | Product List | Glossary Off
Versions: 1 2 3 4 5 6 7 8 9 10 11 12 13 14 15 16 17 18 19 20 21 22 23 24 25 26 27 28 29 30 31 32 33 34 35 36 37 38 39 40 41 42 43 44 45 46 47 48 49 50

000
ASUS43 KGLD 301708
RWRGLD

GOODLAND FORECAST AREA HOURLY WEATHER ROUNDUP
NATIONAL WEATHER SERVICE GOODLAND KS
1100 AM MDT SAT JUL 30 2016

...OFFICIAL OBSERVATIONS...

CITY           SKY/WX    TMP DP  RH WIND       PRES   REMARKS
GOODLAND KS    SUNNY     80  62  54 SE9       30.01S
HILL CITY KS   SUNNY     83  66  56 S13G20    30.00S
IMPERIAL NEB   CLOUDY    78  62  57 VRB6      30.00S
MCCOOK NEB     SUNNY     84  62  47 SE6       29.98F
AKRON CO       SUNNY     82  55  39 SE13      30.03F
BURLINGTON CO  SUNNY     79  58  48 SE7       30.03S
LIMON CO       SUNNY     79  56  45 S7        30.07S
$$

...UNOFFICIAL OBSERVATIONS...

CITY           SKY/WX    TMP DP  RH WIND       PRES   REMARKS
LENORA KS        N/A     82  32  16 MISG        N/A
NORTON KS      MOSUNNY   81  61  50 SE10G18   29.98F
SHARON SPRINGS   N/A     83  65  54 S9G18       N/A
KIT CARSON CO    N/A     82  58  44 MISG        N/A
YUMA CO          N/A     82  62  50 SE8         N/A
$$



USA.gov is the U.S. government's official web portal to all federal, state and local government web resources and services.